Location: Carrer del Canonge
(41.4901°N, 2.2931°E)
Time: 04:39:32
(UTC+00:00)

Cosmos 1674 - Pass Details

Date: 18 September 2020
Orbit: 494 x 518 km, 82.5° (Epoch: 25 October)

Event Time Altitude Azimuth Distance (km) Brightness Sun altitude
Rises 19:04:21 0° 9° (N) 2,650 6.4 -13.8°
Reaches altitude 10° 19:07:06 10° 30° (NNE) 1,757 5.2 -14.3°
Enters shadow 19:09:05 17° 60° (ENE) 1,382 4.5 -14.6°
